Time,TemperatureF,DewpointF,PressureIn,WindDirection,WindDirectionDegrees,WindSpeedMPH,WindSpeedGustMPH,Humidity,HourlyPrecipIn,Conditions,Clouds,dailyrainin,SolarRadiationWatts/m^2,SoftwareType,DateUTC
2014-02-13 00:00:00,28.2,25.9,29.76,North,356,1.0,2.0,91,0.00,,,0.00,0.00,VWS V15.00,2014-02-13 05:00:00,
2014-02-13 00:01:00,28.2,25.9,29.76,North,0,1.0,2.0,91,0.00,,,0.00,0.00,VWS V15.00,2014-02-13 05:01:00,
2014-02-13 00:06:00,28.4,26.1,29.75,North,357,0.0,2.0,91,0.00,,,0.00,0.00,VWS V15.00,2014-02-13 05:06:00,
2014-02-13 00:11:00,28.4,26.1,29.75,North,0,1.0,2.0,91,0.00,,,0.00,0.00,VWS V15.00,2014-02-13 05:11:00,
2014-02-13 00:16:00,28.5,26.2,29.74,North,0,2.0,3.0,91,0.00,,,0.00,0.00,VWS V15.00,2014-02-13 05:16:00,
2014-02-13 00:21:00,28.7,26.4,29.74,North,352,1.0,3.0,91,0.00,,,0.00,0.00,VWS V15.00,2014-02-13 05:21:00,
2014-02-13 00:26:00,28.7,26.4,29.74,North,0,0.0,2.0,91,0.00,,,0.00,0.00,VWS V15.00,2014-02-13 05:26:00,
2014-02-13 00:30:00,28.8,26.5,29.74,North,359,1.0,2.0,91,0.00,,CLR,0.00,0.00,VWS V15.00,2014-02-13 05:30:00,
2014-02-13 00:31:00,28.8,26.5,29.74,North,349,2.0,2.0,91,0.00,,,0.00,0.00,VWS V15.00,2014-02-13 05:31:00,
2014-02-13 00:36:00,28.8,26.5,29.74,North,354,0.0,1.0,91,0.00,,,0.00,0.00,VWS V15.00,2014-02-13 05:36:00,
2014-02-13 00:41:00,29.0,26.7,29.74,North,0,1.0,2.0,91,0.00,,,0.00,0.00,VWS V15.00,2014-02-13 05:41:00,
2014-02-13 00:46:00,29.0,26.7,29.74,North,356,2.0,2.0,91,0.00,,,0.00,0.00,VWS V15.00,2014-02-13 05:46:00,
2014-02-13 00:51:00,29.1,26.8,29.73,North,0,2.0,2.0,91,0.00,,,0.00,0.00,VWS V15.00,2014-02-13 05:51:00,
2014-02-13 00:56:00,29.1,26.8,29.72,North,0,1.0,2.0,91,0.00,,,0.00,0.00,VWS V15.00,2014-02-13 05:56:00,
2014-02-13 01:00:00,29.3,27.0,29.73,North,0,0.0,2.0,91,0.00,,CLR,0.00,0.00,VWS V15.00,2014-02-13 06:00:00,
2014-02-13 01:01:00,29.3,27.0,29.73,North,0,0.0,2.0,91,0.00,,,0.00,0.00,VWS V15.00,2014-02-13 06:01:00,
2014-02-13 01:06:00,29.3,27.0,29.73,North,1,1.0,2.0,91,0.00,,,0.00,0.00,VWS V15.00,2014-02-13 06:06:00,
2014-02-13 01:11:00,29.4,27.1,29.73,North,359,0.0,2.0,91,0.00,,,0.00,0.00,VWS V15.00,2014-02-13 06:11:00,
2014-02-13 01:16:00,29.4,27.1,29.73,North,359,0.0,1.0,91,0.00,,,0.00,0.00,VWS V15.00,2014-02-13 06:16:00,
2014-02-13 01:21:00,29.4,27.1,29.73,North,356,0.0,5.0,91,0.00,,,0.00,0.00,VWS V15.00,2014-02-13 06:21:00,
2014-02-13 01:26:00,29.5,27.2,29.72,North,353,1.0,2.0,91,0.00,,,0.00,0.00,VWS V15.00,2014-02-13 06:26:00,
2014-02-13 01:30:00,29.5,27.2,29.72,North,352,0.0,3.0,91,0.00,,CLR,0.00,0.00,VWS V15.00,2014-02-13 06:30:00,
2014-02-13 01:31:00,29.5,27.2,29.72,NW,326,1.0,3.0,91,0.00,,,0.00,0.00,VWS V15.00,2014-02-13 06:31:00,
2014-02-13 01:36:00,29.7,27.4,29.72,NNW,337,1.0,1.0,91,0.00,,,0.00,0.00,VWS V15.00,2014-02-13 06:36:00,
2014-02-13 01:41:00,29.7,27.4,29.72,NNW,337,0.0,1.0,91,0.00,,,0.00,0.00,VWS V15.00,2014-02-13 06:41:00,
2014-02-13 01:46:00,29.7,27.4,29.71,North,350,0.0,1.0,91,0.00,,,0.00,0.00,VWS V15.00,2014-02-13 06:46:00,
2014-02-13 01:51:00,29.8,27.5,29.70,North,0,0.0,2.0,91,0.00,,,0.00,0.00,VWS V15.00,2014-02-13 06:51:00,
2014-02-13 01:56:00,29.8,27.5,29.69,North,7,1.0,2.0,91,0.00,,,0.00,0.00,VWS V15.00,2014-02-13 06:56:00,
2014-02-13 02:00:00,29.8,27.5,29.69,NW,323,0.0,1.0,91,0.00,,CLR,0.00,0.00,VWS V15.00,2014-02-13 07:00:00,
2014-02-13 02:01:00,29.8,27.5,29.69,NW,323,0.0,1.0,91,0.00,,,0.00,0.00,VWS V15.00,2014-02-13 07:01:00,
2014-02-13 02:06:00,30.0,27.7,29.69,NW,304,0.0,2.0,91,0.00,,,0.00,0.00,VWS V15.00,2014-02-13 07:06:00,
2014-02-13 02:11:00,30.0,27.7,29.68,North,359,2.0,3.0,91,0.00,,,0.00,0.00,VWS V15.00,2014-02-13 07:11:00,
2014-02-13 02:16:00,30.0,27.7,29.68,NNW,347,0.0,3.0,91,0.00,,,0.00,0.00,VWS V15.00,2014-02-13 07:16:00,
2014-02-13 02:21:00,30.1,27.8,29.67,NNW,328,0.0,1.0,91,0.00,,,0.00,0.00,VWS V15.00,2014-02-13 07:21:00,
2014-02-13 02:26:00,30.1,27.8,29.66,NNW,344,0.0,3.0,91,0.00,,,0.00,0.00,VWS V15.00,2014-02-13 07:26:00,
2014-02-13 02:30:00,30.1,27.8,29.66,SSE,147,0.0,4.0,91,0.00,,CLR,0.00,0.00,VWS V15.00,2014-02-13 07:30:00,
2014-02-13 02:31:00,30.1,27.8,29.66,North,0,1.0,4.0,91,0.00,,,0.00,0.00,VWS V15.00,2014-02-13 07:31:00,
2014-02-13 02:36:00,30.1,27.8,29.66,North,359,0.0,4.0,91,0.00,,,0.00,0.00,VWS V15.00,2014-02-13 07:36:00,
2014-02-13 02:41:00,30.3,28.0,29.67,West,275,0.0,1.0,91,0.00,,,0.00,0.00,VWS V15.00,2014-02-13 07:41:00,
2014-02-13 02:46:00,30.3,28.0,29.66,WNW,287,0.0,1.0,91,0.00,,,0.00,0.00,VWS V15.00,2014-02-13 07:46:00,
2014-02-13 02:51:00,30.3,28.0,29.67,WNW,291,0.0,1.0,91,0.00,,,0.00,0.00,VWS V15.00,2014-02-13 07:51:00,
2014-02-13 02:56:00,30.3,28.0,29.66,NW,306,1.0,1.0,91,0.00,,,0.00,0.00,VWS V15.00,2014-02-13 07:56:00,
2014-02-13 03:00:00,30.3,28.0,29.65,NW,319,1.0,1.0,91,0.00,,CLR,0.00,0.00,VWS V15.00,2014-02-13 08:00:00,
2014-02-13 03:01:00,30.3,28.0,29.65,NW,320,1.0,2.0,91,0.00,,,0.00,0.00,VWS V15.00,2014-02-13 08:01:00,
2014-02-13 03:06:00,30.3,28.0,29.66,North,349,1.0,1.0,91,0.00,,,0.00,0.00,VWS V15.00,2014-02-13 08:06:00,
2014-02-13 03:11:00,30.4,28.1,29.67,SSW,196,0.0,6.0,91,0.00,,,0.00,0.00,VWS V15.00,2014-02-13 08:11:00,
2014-02-13 03:16:00,30.4,28.1,29.65,WNW,295,0.0,1.0,91,0.00,,,0.00,0.00,VWS V15.00,2014-02-13 08:16:00,
2014-02-13 03:21:00,30.4,28.1,29.65,WNW,292,1.0,1.0,91,0.00,,,0.00,0.00,VWS V15.00,2014-02-13 08:21:00,
2014-02-13 03:26:00,30.4,28.1,29.66,WNW,294,0.0,1.0,91,0.00,,,0.00,0.00,VWS V15.00,2014-02-13 08:26:00,
2014-02-13 03:30:00,30.4,28.1,29.66,WNW,301,0.0,2.0,91,0.00,,CLR,0.00,0.00,VWS V15.00,2014-02-13 08:30:00,
2014-02-13 03:31:00,30.4,28.1,29.66,WNW,301,0.0,1.0,91,0.00,,,0.00,0.00,VWS V15.00,2014-02-13 08:31:00,
2014-02-13 03:36:00,30.6,28.3,29.66,West,277,1.0,1.0,91,0.00,,,0.00,0.00,VWS V15.00,2014-02-13 08:36:00,
2014-02-13 03:41:00,30.6,28.3,29.65,WSW,257,0.0,1.0,91,0.00,,,0.00,0.00,VWS V15.00,2014-02-13 08:41:00,
2014-02-13 03:46:00,30.6,28.3,29.66,WSW,257,0.0,1.0,91,0.00,,,0.00,0.00,VWS V15.00,2014-02-13 08:46:00,
2014-02-13 03:51:00,30.6,28.3,29.66,WSW,257,0.0,0.0,91,0.00,,,0.00,0.00,VWS V15.00,2014-02-13 08:51:00,
2014-02-13 03:56:00,30.6,28.3,29.66,WSW,257,0.0,1.0,91,0.00,,,0.00,0.00,VWS V15.00,2014-02-13 08:56:00,
2014-02-13 04:00:00,30.6,28.6,29.66,WSW,257,0.0,0.0,92,0.00,,CLR,0.00,0.00,VWS V15.00,2014-02-13 09:00:00,
2014-02-13 04:01:00,30.6,28.6,29.66,WSW,257,0.0,0.0,92,0.00,,,0.00,0.00,VWS V15.00,2014-02-13 09:01:00,
2014-02-13 04:06:00,30.6,28.6,29.65,WSW,257,0.0,1.0,92,0.00,,,0.00,0.00,VWS V15.00,2014-02-13 09:06:00,
2014-02-13 04:11:00,30.6,28.6,29.64,NW,312,1.0,2.0,92,0.00,,,0.00,0.00,VWS V15.00,2014-02-13 09:11:00,
2014-02-13 04:16:00,30.7,28.7,29.63,NW,312,0.0,1.0,92,0.00,,,0.00,0.00,VWS V15.00,2014-02-13 09:16:00,
2014-02-13 04:21:00,30.7,28.7,29.63,North,359,1.0,3.0,92,0.00,,,0.00,0.00,VWS V15.00,2014-02-13 09:21:00,
2014-02-13 04:26:00,30.7,28.7,29.63,North,359,1.0,2.0,92,0.00,,,0.00,0.00,VWS V15.00,2014-02-13 09:26:00,
2014-02-13 04:30:00,30.9,28.9,29.63,North,359,0.0,1.0,92,0.00,,CLR,0.00,0.00,VWS V15.00,2014-02-13 09:30:00,
2014-02-13 04:31:00,30.9,28.9,29.63,North,359,0.0,1.0,92,0.00,,OVC022,0.00,0.00,VWS V15.00,2014-02-13 09:31:00,
2014-02-13 04:36:00,30.9,28.9,29.63,North,359,1.0,1.0,92,0.00,,OVC022,0.00,0.00,VWS V15.00,2014-02-13 09:36:00,
2014-02-13 04:41:00,31.0,29.0,29.63,North,359,0.0,1.0,92,0.00,,OVC022,0.00,0.00,VWS V15.00,2014-02-13 09:41:00,
2014-02-13 04:46:00,31.0,29.0,29.63,North,359,0.0,1.0,92,0.00,,OVC022,0.00,0.00,VWS V15.00,2014-02-13 09:46:00,
2014-02-13 04:51:00,31.0,29.0,29.63,North,359,0.0,1.0,92,0.00,,OVC015,0.00,0.00,VWS V15.00,2014-02-13 09:51:00,
2014-02-13 04:56:00,31.0,29.0,29.63,North,359,0.0,0.0,92,0.00,,OVC015,0.00,0.00,VWS V15.00,2014-02-13 09:56:00,
2014-02-13 05:00:00,31.0,29.0,29.63,North,359,0.0,0.0,92,0.00,,CLR,0.00,0.00,VWS V15.00,2014-02-13 10:00:00,
2014-02-13 05:01:00,31.0,29.0,29.63,North,359,0.0,0.0,92,0.00,,OVC015,0.00,0.00,VWS V15.00,2014-02-13 10:01:00,
2014-02-13 05:06:00,31.0,29.0,29.63,North,359,0.0,0.0,92,0.00,,OVC015,0.00,0.00,VWS V15.00,2014-02-13 10:06:00,
2014-02-13 05:11:00,31.2,29.1,29.62,North,0,0.0,1.0,92,0.00,,OVC015,0.00,0.00,VWS V15.00,2014-02-13 10:11:00,
2014-02-13 05:16:00,31.2,29.1,29.62,North,0,1.0,1.0,92,0.00,,OVC015,0.00,0.00,VWS V15.00,2014-02-13 10:16:00,
2014-02-13 05:21:00,31.2,29.1,29.62,North,0,0.0,1.0,92,0.00,,OVC015,0.00,0.00,VWS V15.00,2014-02-13 10:21:00,
2014-02-13 05:26:00,31.2,29.4,29.61,North,0,0.0,1.0,93,0.00,,OVC015,0.00,0.00,VWS V15.00,2014-02-13 10:26:00,
2014-02-13 05:30:00,31.3,29.5,29.61,North,0,1.0,1.0,93,0.00,,CLR,0.00,0.00,VWS V15.00,2014-02-13 10:30:00,
2014-02-13 05:31:00,31.3,29.5,29.61,North,0,1.0,1.0,93,0.00,,,0.00,0.00,VWS V15.00,2014-02-13 10:31:00,
2014-02-13 05:36:00,31.3,29.5,29.61,North,0,0.0,1.0,93,0.00,,,0.00,0.00,VWS V15.00,2014-02-13 10:36:00,
2014-02-13 05:41:00,31.3,29.5,29.61,North,0,0.0,0.0,93,0.00,,,0.00,0.00,VWS V15.00,2014-02-13 10:41:00,
2014-02-13 05:46:00,31.3,29.5,29.61,North,0,0.0,0.0,93,0.00,,,0.00,0.00,VWS V15.00,2014-02-13 10:46:00,
2014-02-13 05:51:00,31.3,29.5,29.61,North,0,0.0,1.0,93,0.00,,,0.00,0.00,VWS V15.00,2014-02-13 10:51:00,
2014-02-13 05:56:00,31.3,29.5,29.61,North,0,1.0,1.0,93,0.00,,,0.00,0.00,VWS V15.00,2014-02-13 10:56:00,
2014-02-13 06:00:00,31.5,29.7,29.61,North,0,0.0,1.0,93,0.00,,CLR,0.00,0.00,VWS V15.00,2014-02-13 11:00:00,
2014-02-13 06:01:00,31.5,29.7,29.61,North,0,0.0,1.0,93,0.00,,,0.00,0.00,VWS V15.00,2014-02-13 11:01:00,
2014-02-13 06:06:00,31.5,29.7,29.61,North,0,0.0,0.0,93,0.00,,,0.00,0.00,VWS V15.00,2014-02-13 11:06:00,
2014-02-13 06:11:00,31.5,29.7,29.61,North,0,0.0,0.0,93,0.00,,,0.00,0.00,VWS V15.00,2014-02-13 11:11:00,
2014-02-13 06:16:00,31.5,29.7,29.61,North,0,0.0,1.0,93,0.00,,,0.00,0.00,VWS V15.00,2014-02-13 11:16:00,
2014-02-13 06:21:00,31.3,29.5,29.60,North,0,0.0,0.0,93,0.00,,,0.00,0.00,VWS V15.00,2014-02-13 11:21:00,
2014-02-13 06:26:00,31.3,29.5,29.60,North,0,0.0,0.0,93,0.00,,,0.00,0.00,VWS V15.00,2014-02-13 11:26:00,
2014-02-13 06:30:00,31.5,29.7,29.61,North,354,0.0,1.0,93,0.00,,CLR,0.00,0.00,VWS V15.00,2014-02-13 11:30:00,
2014-02-13 06:31:00,31.5,29.7,29.61,North,354,0.0,1.0,93,0.00,,,0.00,0.00,VWS V15.00,2014-02-13 11:31:00,
2014-02-13 06:36:00,31.6,29.8,29.61,WNW,299,1.0,2.0,93,0.00,,,0.00,0.00,VWS V15.00,2014-02-13 11:36:00,
2014-02-13 06:41:00,31.8,30.0,29.62,West,281,0.0,2.0,93,0.00,,,0.00,0.00,VWS V15.00,2014-02-13 11:41:00,
2014-02-13 06:46:00,31.8,30.0,29.62,West,281,1.0,1.0,93,0.00,,,0.00,0.00,VWS V15.00,2014-02-13 11:46:00,
2014-02-13 06:51:00,31.9,30.4,29.62,SW,223,0.0,1.0,94,0.00,,,0.00,0.00,VWS V15.00,2014-02-13 11:51:00,
2014-02-13 06:56:00,31.9,30.4,29.63,SW,226,0.0,0.0,94,0.00,,,0.00,0.00,VWS V15.00,2014-02-13 11:56:00,
2014-02-13 07:00:00,32.1,30.6,29.63,SW,226,0.0,0.0,94,0.00,,CLR,0.00,0.00,VWS V15.00,2014-02-13 12:00:00,
2014-02-13 07:01:00,32.1,30.6,29.63,SW,226,0.0,0.0,94,0.00,,,0.00,0.00,VWS V15.00,2014-02-13 12:01:00,
2014-02-13 07:06:00,32.1,30.6,29.63,SW,226,0.0,0.0,94,0.00,,,0.00,0.00,VWS V15.00,2014-02-13 12:06:00,
2014-02-13 07:11:00,32.1,30.6,29.63,West,278,0.0,1.0,94,0.00,,,0.00,0.00,VWS V15.00,2014-02-13 12:11:00,
2014-02-13 07:16:00,32.1,30.6,29.63,West,278,0.0,1.0,94,0.00,,,0.00,0.00,VWS V15.00,2014-02-13 12:16:00,
2014-02-13 07:21:00,32.1,30.6,29.63,West,278,0.0,1.0,94,0.00,,,0.00,0.00,VWS V15.00,2014-02-13 12:21:00,
2014-02-13 07:26:00,32.1,30.6,29.63,West,278,0.0,0.0,94,0.00,,,0.00,0.00,VWS V15.00,2014-02-13 12:26:00,
2014-02-13 07:30:00,32.1,30.6,29.63,West,278,0.0,1.0,94,0.00,,CLR,0.00,0.00,VWS V15.00,2014-02-13 12:30:00,
2014-02-13 07:31:00,32.1,30.6,29.63,West,278,0.0,1.0,94,0.00,,OVC025,0.00,0.00,VWS V15.00,2014-02-13 12:31:00,
2014-02-13 07:36:00,32.1,30.6,29.63,West,278,0.0,1.0,94,0.00,,OVC025,0.00,0.00,VWS V15.00,2014-02-13 12:36:00,
2014-02-13 07:41:00,32.2,30.7,29.63,West,265,0.0,1.0,94,0.00,,OVC025,0.00,0.00,VWS V15.00,2014-02-13 12:41:00,
2014-02-13 07:46:00,32.2,30.7,29.63,West,267,0.0,1.0,94,0.00,,OVC025,0.00,0.00,VWS V15.00,2014-02-13 12:46:00,
2014-02-13 07:51:00,32.2,30.7,29.63,West,264,0.0,0.0,94,0.00,,,0.00,0.00,VWS V15.00,2014-02-13 12:51:00,
2014-02-13 07:56:00,32.2,30.7,29.63,West,264,0.0,0.0,94,0.00,,,0.00,0.00,VWS V15.00,2014-02-13 12:56:00,
2014-02-13 08:00:00,32.2,30.7,29.62,West,264,0.0,0.0,94,0.00,,CLR,0.00,0.00,VWS V15.00,2014-02-13 13:00:00,
2014-02-13 08:01:00,32.2,30.7,29.62,West,264,0.0,0.0,94,0.00,,,0.00,0.00,VWS V15.00,2014-02-13 13:01:00,
2014-02-13 08:06:00,32.4,30.9,29.62,WSW,241,0.0,1.0,94,0.00,,,0.00,0.00,VWS V15.00,2014-02-13 13:06:00,
2014-02-13 08:11:00,32.4,30.9,29.62,WSW,241,0.0,0.0,94,0.00,,,0.00,0.00,VWS V15.00,2014-02-13 13:11:00,
2014-02-13 08:16:00,32.5,31.0,29.62,WSW,241,0.0,0.0,94,0.00,,,0.00,5.00,VWS V15.00,2014-02-13 13:16:00,
2014-02-13 08:21:00,32.5,31.0,29.62,WSW,241,0.0,0.0,94,0.00,,,0.00,11.00,VWS V15.00,2014-02-13 13:21:00,
2014-02-13 08:26:00,32.7,31.2,29.62,WSW,241,0.0,0.0,94,0.00,,,0.00,11.00,VWS V15.00,2014-02-13 13:26:00,
2014-02-13 08:30:00,32.8,31.3,29.61,WSW,241,0.0,1.0,94,0.00,,CLR,0.00,11.00,VWS V15.00,2014-02-13 13:30:00,
2014-02-13 08:31:00,32.8,31.3,29.61,WSW,241,0.0,0.0,94,0.00,,,0.00,11.00,VWS V15.00,2014-02-13 13:31:00,
2014-02-13 08:36:00,32.8,31.3,29.61,WSW,241,0.0,1.0,94,0.00,,,0.00,12.00,VWS V15.00,2014-02-13 13:36:00,
2014-02-13 08:41:00,32.8,31.3,29.62,WSW,241,0.0,1.0,94,0.00,,,0.00,14.00,VWS V15.00,2014-02-13 13:41:00,
2014-02-13 08:46:00,32.9,31.4,29.62,WSW,241,0.0,1.0,94,0.00,,,0.00,19.00,VWS V15.00,2014-02-13 13:46:00,
2014-02-13 08:51:00,32.9,31.4,29.62,WSW,257,0.0,1.0,94,0.00,,,0.00,23.00,VWS V15.00,2014-02-13 13:51:00,
2014-02-13 08:56:00,33.1,31.6,29.62,WSW,257,0.0,2.0,94,0.00,,,0.00,25.00,VWS V15.00,2014-02-13 13:56:00,
2014-02-13 09:00:00,33.2,31.7,29.62,WSW,257,0.0,1.0,94,0.00,,CLR,0.00,25.00,VWS V15.00,2014-02-13 14:00:00,
2014-02-13 09:01:00,33.2,31.7,29.62,WSW,257,0.0,1.0,94,0.00,,,0.00,25.00,VWS V15.00,2014-02-13 14:01:00,
2014-02-13 09:06:00,33.2,31.7,29.62,WSW,257,0.0,1.0,94,0.00,,,0.00,23.00,VWS V15.00,2014-02-13 14:06:00,
2014-02-13 09:11:00,33.4,31.9,29.62,West,275,0.0,1.0,94,0.00,,,0.00,42.00,VWS V15.00,2014-02-13 14:11:00,
2014-02-13 09:16:00,33.7,32.2,29.61,West,272,1.0,1.0,94,0.00,,,0.00,69.00,VWS V15.00,2014-02-13 14:16:00,
2014-02-13 09:21:00,33.8,32.3,29.62,West,277,1.0,2.0,94,0.00,,,0.00,65.00,VWS V15.00,2014-02-13 14:21:00,
2014-02-13 09:26:00,34.0,32.5,29.62,NW,305,0.0,2.0,94,0.00,,,0.00,55.00,VWS V15.00,2014-02-13 14:26:00,
2014-02-13 09:30:00,34.0,32.5,29.62,SSE,161,3.0,3.0,94,0.00,,CLR,0.00,49.00,VWS V15.00,2014-02-13 14:30:00,
2014-02-13 09:31:00,34.0,32.5,29.62,SW,216,1.0,3.0,94,0.00,,,0.00,48.00,VWS V15.00,2014-02-13 14:31:00,
2014-02-13 09:36:00,33.8,32.0,29.62,WNW,295,1.0,2.0,93,0.00,,,0.00,46.00,VWS V15.00,2014-02-13 14:36:00,
2014-02-13 09:41:00,33.7,31.9,29.62,SSE,155,3.0,3.0,93,0.00,,,0.00,39.00,VWS V15.00,2014-02-13 14:41:00,
2014-02-13 09:46:00,33.7,31.9,29.62,WSW,248,2.0,2.0,93,0.00,,,0.00,49.00,VWS V15.00,2014-02-13 14:46:00,
2014-02-13 09:51:00,33.7,31.9,29.62,NW,308,1.0,4.0,93,0.00,,,0.00,107.00,VWS V15.00,2014-02-13 14:51:00,
2014-02-13 09:56:00,33.8,32.0,29.62,West,271,2.0,2.0,93,0.00,,,0.00,113.00,VWS V15.00,2014-02-13 14:56:00,
2014-02-13 10:00:00,33.8,32.0,29.62,WNW,284,1.0,2.0,93,0.00,,CLR,0.00,114.00,VWS V15.00,2014-02-13 15:00:00,
2014-02-13 10:01:00,33.8,32.0,29.62,WNW,284,1.0,2.0,93,0.00,,,0.00,116.00,VWS V15.00,2014-02-13 15:01:00,
2014-02-13 10:06:00,33.8,32.0,29.62,West,267,0.0,3.0,93,0.00,,,0.00,127.00,VWS V15.00,2014-02-13 15:06:00,
2014-02-13 10:11:00,34.0,32.2,29.62,West,271,2.0,2.0,93,0.00,,,0.00,143.00,VWS V15.00,2014-02-13 15:11:00,
2014-02-13 10:16:00,34.1,32.3,29.62,NW,309,1.0,2.0,93,0.00,,,0.00,160.00,VWS V15.00,2014-02-13 15:16:00,
2014-02-13 10:21:00,34.4,32.6,29.62,West,267,2.0,4.0,93,0.00,,,0.00,190.00,VWS V15.00,2014-02-13 15:21:00,
2014-02-13 10:26:00,34.6,32.8,29.61,West,281,1.0,4.0,93,0.01,,,0.01,257.00,VWS V15.00,2014-02-13 15:26:00,
2014-02-13 10:30:00,34.7,32.9,29.61,West,278,1.0,3.0,93,0.01,,CLR,0.01,236.00,VWS V15.00,2014-02-13 15:30:00,
2014-02-13 10:31:00,34.7,32.9,29.61,SSW,212,1.0,3.0,93,0.01,,OVC060,0.01,232.00,VWS V15.00,2014-02-13 15:31:00,
2014-02-13 10:36:00,34.9,33.1,29.61,SW,236,3.0,4.0,93,0.01,,OVC060,0.01,202.00,VWS V15.00,2014-02-13 15:36:00,
2014-02-13 10:41:00,35.0,33.2,29.61,WNW,299,1.0,3.0,93,0.01,,OVC060,0.01,178.00,VWS V15.00,2014-02-13 15:41:00,
2014-02-13 10:46:00,35.0,33.2,29.62,WSW,256,2.0,5.0,93,0.01,,OVC060,0.01,202.00,VWS V15.00,2014-02-13 15:46:00,
2014-02-13 10:51:00,35.3,33.5,29.62,NW,312,2.0,5.0,93,0.01,,OVC060,0.01,215.00,VWS V15.00,2014-02-13 15:51:00,
2014-02-13 10:56:00,35.5,33.7,29.62,West,275,2.0,6.0,93,0.01,,OVC060,0.01,215.00,VWS V15.00,2014-02-13 15:56:00,
2014-02-13 11:00:00,35.6,33.5,29.62,WSW,241,2.0,3.0,92,0.01,,CLR,0.01,260.00,VWS V15.00,2014-02-13 16:00:00,
2014-02-13 11:01:00,35.6,33.5,29.62,WSW,246,2.0,3.0,92,0.01,,OVC060,0.01,260.00,VWS V15.00,2014-02-13 16:01:00,
2014-02-13 11:06:00,35.9,34.1,29.61,WSW,248,1.0,2.0,93,0.01,,OVC060,0.01,269.00,VWS V15.00,2014-02-13 16:06:00,
2014-02-13 11:11:00,35.9,33.8,29.62,WNW,284,3.0,3.0,92,0.01,,OVC060,0.01,245.00,VWS V15.00,2014-02-13 16:11:00,
2014-02-13 11:16:00,36.3,34.2,29.62,North,0,1.0,1.0,92,0.01,,OVC060,0.01,290.00,VWS V15.00,2014-02-13 16:16:00,
2014-02-13 11:21:00,36.2,33.8,29.62,West,275,2.0,2.0,91,0.01,,OVC060,0.01,274.00,VWS V15.00,2014-02-13 16:21:00,
2014-02-13 11:26:00,36.2,33.8,29.62,West,278,2.0,6.0,91,0.01,,OVC060,0.01,230.00,VWS V15.00,2014-02-13 16:26:00,
2014-02-13 11:30:00,36.2,33.8,29.62,West,268,1.0,4.0,91,0.01,,CLR,0.01,222.00,VWS V15.00,2014-02-13 16:30:00,
2014-02-13 11:31:00,36.2,33.8,29.62,WNW,298,1.0,4.0,91,0.00,,OVC075,0.01,204.00,VWS V15.00,2014-02-13 16:31:00,
2014-02-13 11:36:00,36.3,33.7,29.62,West,275,1.0,3.0,90,0.00,,OVC075,0.01,187.00,VWS V15.00,2014-02-13 16:36:00,
2014-02-13 11:41:00,36.3,33.7,29.62,WSW,256,1.0,5.0,90,0.00,,OVC075,0.01,230.00,VWS V15.00,2014-02-13 16:41:00,
2014-02-13 11:46:00,36.5,33.8,29.62,West,268,0.0,3.0,90,0.00,,OVC075,0.01,208.00,VWS V15.00,2014-02-13 16:46:00,
2014-02-13 11:51:00,36.5,33.8,29.62,WNW,287,1.0,3.0,90,0.00,,OVC075,0.01,223.00,VWS V15.00,2014-02-13 16:51:00,
2014-02-13 11:56:00,36.6,34.0,29.62,WNW,302,5.0,6.0,90,0.00,,OVC075,0.01,260.00,VWS V15.00,2014-02-13 16:56:00,
2014-02-13 12:00:00,36.5,33.6,29.61,NW,318,2.0,4.0,89,0.01,,CLR,0.02,260.00,VWS V15.00,2014-02-13 17:00:00,
2014-02-13 12:01:00,36.5,33.6,29.61,NNW,339,2.0,4.0,89,0.01,,OVC075,0.02,267.00,VWS V15.00,2014-02-13 17:01:00,
2014-02-13 12:06:00,36.5,33.6,29.61,WNW,299,0.0,5.0,89,0.01,,OVC075,0.02,248.00,VWS V15.00,2014-02-13 17:06:00,
2014-02-13 12:11:00,36.6,33.7,29.61,WSW,248,2.0,4.0,89,0.01,,OVC075,0.02,278.00,VWS V15.00,2014-02-13 17:11:00,
2014-02-13 12:16:00,36.6,33.7,29.61,South,181,1.0,3.0,89,0.01,,OVC075,0.02,296.00,VWS V15.00,2014-02-13 17:16:00,
2014-02-13 12:21:00,36.8,33.6,29.60,WSW,256,1.0,2.0,88,0.01,,OVC075,0.02,357.00,VWS V15.00,2014-02-13 17:21:00,
2014-02-13 12:26:00,37.0,33.8,29.60,West,265,1.0,4.0,88,0.01,,OVC075,0.02,371.00,VWS V15.00,2014-02-13 17:26:00,
2014-02-13 12:30:00,37.2,34.0,29.60,NW,320,3.0,3.0,88,0.01,,CLR,0.02,450.00,VWS V15.00,2014-02-13 17:30:00,
2014-02-13 12:31:00,37.3,34.1,29.60,NW,315,2.0,3.0,88,0.01,,OVC075,0.02,443.00,VWS V15.00,2014-02-13 17:31:00,
2014-02-13 12:36:00,37.6,34.1,29.59,NW,305,2.0,3.0,87,0.01,,OVC075,0.02,452.00,VWS V15.00,2014-02-13 17:36:00,
2014-02-13 12:41:00,37.8,33.7,29.59,West,261,2.0,5.0,85,0.02,,OVC075,0.03,433.00,VWS V15.00,2014-02-13 17:41:00,
2014-02-13 12:46:00,37.9,34.1,29.59,SSW,205,2.0,5.0,86,0.02,,OVC075,0.03,313.00,VWS V15.00,2014-02-13 17:46:00,
2014-02-13 12:51:00,37.9,33.8,29.59,West,277,2.0,3.0,85,0.02,,OVC075,0.03,236.00,VWS V15.00,2014-02-13 17:51:00,
2014-02-13 12:56:00,38.0,33.9,29.59,WNW,299,1.0,3.0,85,0.02,,OVC075,0.03,253.00,VWS V15.00,2014-02-13 17:56:00,
2014-02-13 13:00:00,38.5,34.4,29.59,SSE,161,1.0,2.0,85,0.02,,CLR,0.03,292.00,VWS V15.00,2014-02-13 18:00:00,
2014-02-13 13:01:00,38.5,34.4,29.59,SSE,161,0.0,2.0,85,0.01,,OVC075,0.03,296.00,VWS V15.00,2014-02-13 18:01:00,
2014-02-13 13:06:00,38.5,34.1,29.59,West,267,1.0,2.0,84,0.02,,OVC075,0.04,336.00,VWS V15.00,2014-02-13 18:06:00,
2014-02-13 13:11:00,38.6,33.9,29.59,West,263,0.0,3.0,83,0.03,,OVC075,0.05,327.00,VWS V15.00,2014-02-13 18:11:00,
2014-02-13 13:16:00,39.1,34.4,29.59,WSW,251,0.0,1.0,83,0.03,,OVC075,0.05,285.00,VWS V15.00,2014-02-13 18:16:00,
2014-02-13 13:21:00,39.2,34.2,29.58,SSW,203,0.0,1.0,82,0.04,,OVC075,0.06,311.00,VWS V15.00,2014-02-13 18:21:00,
2014-02-13 13:26:00,39.6,34.3,29.58,WNW,285,1.0,2.0,81,0.05,,OVC075,0.07,299.00,VWS V15.00,2014-02-13 18:26:00,
2014-02-13 13:30:00,41.5,34.8,29.57,WNW,298,0.0,4.0,77,0.06,,CLR,0.08,751.00,VWS V15.00,2014-02-13 18:30:00,
2014-02-13 13:31:00,41.8,35.1,29.57,WNW,298,0.0,4.0,77,0.06,,OVC075,0.08,734.00,VWS V15.00,2014-02-13 18:31:00,
2014-02-13 13:36:00,42.5,34.1,29.57,SW,219,2.0,5.0,72,0.07,,OVC075,0.09,772.00,VWS V15.00,2014-02-13 18:36:00,
2014-02-13 13:41:00,43.2,34.1,29.57,WNW,284,2.0,5.0,70,0.10,,OVC090,0.12,811.00,VWS V15.00,2014-02-13 18:41:00,
2014-02-13 13:46:00,43.3,32.3,29.57,NW,315,3.0,5.0,65,0.11,,OVC090,0.13,711.00,VWS V15.00,2014-02-13 18:46:00,
2014-02-13 13:51:00,43.6,33.0,29.57,WNW,299,1.0,3.0,66,0.12,,OVC090,0.14,711.00,VWS V15.00,2014-02-13 18:51:00,
2014-02-13 13:56:00,43.9,32.5,29.57,WNW,302,0.0,4.0,64,0.13,,OVC090,0.15,711.00,VWS V15.00,2014-02-13 18:56:00,
2014-02-13 14:00:00,43.9,32.5,29.56,WNW,302,0.0,0.0,64,0.13,,CLR,0.15,711.00,VWS V15.00,2014-02-13 19:00:00,
2014-02-13 14:01:00,43.3,32.7,29.56,NNW,343,1.0,1.0,66,0.12,,OVC090,0.15,711.00,VWS V15.00,2014-02-13 19:01:00,
2014-02-13 14:06:00,43.5,32.9,29.56,West,274,1.0,5.0,66,0.15,,OVC090,0.18,320.00,VWS V15.00,2014-02-13 19:06:00,
2014-02-13 14:11:00,43.6,33.0,29.56,West,277,2.0,2.0,66,0.15,,OVC090,0.18,320.00,VWS V15.00,2014-02-13 19:11:00,
2014-02-13 14:16:00,45.2,32.2,29.56,West,280,1.0,4.0,60,0.18,,OVC090,0.21,660.00,VWS V15.00,2014-02-13 19:16:00,
2014-02-13 14:21:00,45.5,32.4,29.56,WSW,253,1.0,3.0,60,0.20,,OVC090,0.23,646.00,VWS V15.00,2014-02-13 19:21:00,
2014-02-13 14:26:00,45.5,32.4,29.56,NW,308,3.0,3.0,60,0.21,,OVC090,0.24,639.00,VWS V15.00,2014-02-13 19:26:00,
2014-02-13 14:30:00,46.1,33.0,29.56,WSW,247,5.0,6.0,60,0.23,,CLR,0.26,523.00,VWS V15.00,2014-02-13 19:30:00,
2014-02-13 14:31:00,46.1,32.6,29.56,SSW,210,3.0,6.0,59,0.19,,OVC100,0.27,523.00,VWS V15.00,2014-02-13 19:31:00,
2014-02-13 14:36:00,44.9,32.7,29.56,West,267,5.0,6.0,62,0.20,,OVC100,0.28,438.00,VWS V15.00,2014-02-13 19:36:00,
2014-02-13 14:41:00,44.6,32.8,29.57,NNW,333,3.0,6.0,63,0.21,,OVC100,0.29,463.00,VWS V15.00,2014-02-13 19:41:00,
2014-02-13 14:46:00,44.6,32.8,29.57,SW,219,5.0,8.0,63,0.23,,OVC100,0.31,505.00,VWS V15.00,2014-02-13 19:46:00,
2014-02-13 14:51:00,44.8,32.6,29.57,West,260,5.0,7.0,62,0.24,,OVC100,0.32,558.00,VWS V15.00,2014-02-13 19:51:00,
2014-02-13 14:56:00,44.9,32.7,29.57,West,265,7.0,11.0,62,0.26,,OVC100,0.34,519.00,VWS V15.00,2014-02-13 19:56:00,
2014-02-13 15:00:00,45.1,33.3,29.57,WSW,247,2.0,7.0,63,0.29,,CLR,0.37,524.00,VWS V15.00,2014-02-13 20:00:00,
2014-02-13 15:01:00,45.1,32.9,29.57,NW,306,2.0,7.0,62,0.22,,OVC100,0.37,524.00,VWS V15.00,2014-02-13 20:01:00,
2014-02-13 15:06:00,45.7,33.0,29.57,West,260,3.0,6.0,61,0.23,,OVC100,0.38,584.00,VWS V15.00,2014-02-13 20:06:00,
2014-02-13 15:11:00,45.5,32.4,29.58,NW,313,6.0,6.0,60,0.25,,OVC100,0.40,489.00,VWS V15.00,2014-02-13 20:11:00,
2014-02-13 15:16:00,45.7,31.8,29.57,South,178,3.0,5.0,58,0.27,,OVC100,0.42,505.00,VWS V15.00,2014-02-13 20:16:00,
2014-02-13 15:21:00,46.5,32.1,29.57,NNW,347,5.0,5.0,57,0.28,,OVC100,0.43,493.00,VWS V15.00,2014-02-13 20:21:00,
2014-02-13 15:26:00,47.1,32.2,29.58,SW,236,2.0,10.0,56,0.29,,OVC100,0.44,479.00,VWS V15.00,2014-02-13 20:26:00,
2014-02-13 15:30:00,47.0,31.7,29.58,West,271,4.0,7.0,55,0.30,,CLR,0.45,468.00,VWS V15.00,2014-02-13 20:30:00,
2014-02-13 15:31:00,47.0,31.7,29.58,WNW,298,5.0,7.0,55,0.19,,CLR,0.45,468.00,VWS V15.00,2014-02-13 20:31:00,
2014-02-13 15:36:00,47.3,32.4,29.59,WNW,291,2.0,5.0,56,0.20,,CLR,0.46,449.00,VWS V15.00,2014-02-13 20:36:00,
2014-02-13 15:41:00,47.9,32.5,29.58,West,261,5.0,5.0,55,0.22,,CLR,0.48,436.00,VWS V15.00,2014-02-13 20:41:00,
2014-02-13 15:46:00,47.4,32.1,29.58,NW,316,4.0,7.0,55,0.23,,CLR,0.49,422.00,VWS V15.00,2014-02-13 20:46:00,
2014-02-13 15:51:00,47.7,33.2,29.58,SW,223,0.0,5.0,57,0.25,,CLR,0.51,406.00,VWS V15.00,2014-02-13 20:51:00,
2014-02-13 15:56:00,48.6,33.2,29.58,NNW,330,1.0,2.0,55,0.26,,CLR,0.52,392.00,VWS V15.00,2014-02-13 20:56:00,
2014-02-13 16:00:00,48.8,33.4,29.58,WNW,296,1.0,3.0,55,0.27,,CLR,0.53,380.00,VWS V15.00,2014-02-13 21:00:00,
2014-02-13 16:01:00,48.9,33.5,29.58,WNW,295,1.0,3.0,55,0.16,,CLR,0.53,380.00,VWS V15.00,2014-02-13 21:01:00,
2014-02-13 16:06:00,48.6,32.7,29.59,West,270,1.0,4.0,54,0.18,,CLR,0.55,362.00,VWS V15.00,2014-02-13 21:06:00,
2014-02-13 16:11:00,48.6,33.2,29.59,WNW,291,0.0,6.0,55,0.19,,CLR,0.56,347.00,VWS V15.00,2014-02-13 21:11:00,
2014-02-13 16:16:00,49.1,33.7,29.59,West,278,1.0,2.0,55,0.20,,CLR,0.57,331.00,VWS V15.00,2014-02-13 21:16:00,
2014-02-13 16:21:00,49.4,33.5,29.59,WSW,257,1.0,3.0,54,0.22,,CLR,0.59,313.00,VWS V15.00,2014-02-13 21:21:00,
2014-02-13 16:26:00,49.4,33.9,29.60,WNW,289,1.0,1.0,55,0.23,,CLR,0.60,296.00,VWS V15.00,2014-02-13 21:26:00,
2014-02-13 16:30:00,48.8,33.4,29.60,WNW,298,1.0,3.0,55,0.24,,CLR,0.61,280.00,VWS V15.00,2014-02-13 21:30:00,
2014-02-13 16:31:00,48.6,33.2,29.60,WNW,298,1.0,3.0,55,0.16,,FEW042,0.61,280.00,VWS V15.00,2014-02-13 21:31:00,
2014-02-13 16:36:00,47.1,33.9,29.60,West,267,1.0,2.0,60,0.17,,FEW042,0.62,238.00,VWS V15.00,2014-02-13 21:36:00,
2014-02-13 16:41:00,46.8,33.7,29.61,West,267,1.0,1.0,60,0.18,,FEW042,0.63,42.00,VWS V15.00,2014-02-13 21:41:00,
2014-02-13 16:46:00,46.8,33.7,29.61,WNW,291,0.0,2.0,60,0.19,,FEW042,0.64,40.00,VWS V15.00,2014-02-13 21:46:00,
2014-02-13 16:51:00,46.8,33.7,29.61,SW,232,1.0,2.0,60,0.20,,FEW042,0.65,39.00,VWS V15.00,2014-02-13 21:51:00,
2014-02-13 16:56:00,47.0,33.4,29.61,WNW,296,1.0,3.0,59,0.20,,FEW042,0.65,32.00,VWS V15.00,2014-02-13 21:56:00,
2014-02-13 17:00:00,47.0,33.4,29.61,West,280,1.0,2.0,59,0.21,,CLR,0.66,30.00,VWS V15.00,2014-02-13 22:00:00,
2014-02-13 17:01:00,47.0,33.4,29.61,West,280,1.0,2.0,59,0.13,,FEW042,0.66,30.00,VWS V15.00,2014-02-13 22:01:00,
2014-02-13 17:06:00,47.0,33.4,29.61,NW,322,0.0,1.0,59,0.13,,FEW042,0.66,30.00,VWS V15.00,2014-02-13 22:06:00,
2014-02-13 17:11:00,46.7,33.6,29.62,West,280,0.0,2.0,60,0.13,,FEW042,0.66,28.00,VWS V15.00,2014-02-13 22:11:00,
2014-02-13 17:16:00,46.5,33.4,29.62,WNW,301,0.0,2.0,60,0.14,,FEW042,0.67,28.00,VWS V15.00,2014-02-13 22:16:00,
2014-02-13 17:21:00,46.5,33.4,29.62,WNW,301,0.0,1.0,60,0.14,,FEW042,0.67,26.00,VWS V15.00,2014-02-13 22:21:00,
2014-02-13 17:26:00,46.4,33.7,29.62,WNW,301,0.0,1.0,61,0.14,,FEW042,0.67,25.00,VWS V15.00,2014-02-13 22:26:00,
2014-02-13 17:30:00,46.2,33.5,29.62,WSW,253,0.0,0.0,61,0.14,,CLR,0.67,23.00,VWS V15.00,2014-02-13 22:30:00,
2014-02-13 17:31:00,46.2,33.5,29.62,WSW,250,0.0,0.0,61,0.06,,FEW042,0.67,23.00,VWS V15.00,2014-02-13 22:31:00,
2014-02-13 17:36:00,46.2,33.5,29.63,SE,130,0.0,2.0,61,0.06,,CLR,0.67,21.00,VWS V15.00,2014-02-13 22:36:00,
2014-02-13 17:41:00,46.1,33.4,29.63,SW,220,0.0,2.0,61,0.06,,CLR,0.67,19.00,VWS V15.00,2014-02-13 22:41:00,
2014-02-13 17:46:00,46.0,32.9,29.63,NE,48,0.0,2.0,60,0.07,,CLR,0.68,18.00,VWS V15.00,2014-02-13 22:46:00,
2014-02-13 17:51:00,45.7,31.8,29.64,West,267,0.0,2.0,58,0.07,,CLR,0.68,12.00,VWS V15.00,2014-02-13 22:51:00,
2014-02-13 17:56:00,45.5,31.2,29.64,SW,224,1.0,5.0,57,0.07,,CLR,0.68,11.00,VWS V15.00,2014-02-13 22:56:00,
2014-02-13 18:00:00,45.4,31.5,29.64,NNW,333,0.0,1.0,58,0.08,,CLR,0.69,9.00,VWS V15.00,2014-02-13 23:00:00,
2014-02-13 18:01:00,45.4,31.5,29.64,NNW,333,0.0,1.0,58,0.03,,CLR,0.69,9.00,VWS V15.00,2014-02-13 23:01:00,
2014-02-13 18:06:00,44.9,31.0,29.65,NW,315,0.0,2.0,58,0.03,,CLR,0.69,5.00,VWS V15.00,2014-02-13 23:06:00,
2014-02-13 18:11:00,44.5,31.1,29.65,NW,315,0.0,0.0,59,0.03,,CLR,0.69,0.00,VWS V15.00,2014-02-13 23:11:00,
2014-02-13 18:16:00,44.1,31.1,29.65,NW,315,0.0,0.0,60,0.03,,CLR,0.69,0.00,VWS V15.00,2014-02-13 23:16:00,
2014-02-13 18:21:00,43.6,31.5,29.65,NW,315,0.0,0.0,62,0.03,,CLR,0.69,0.00,VWS V15.00,2014-02-13 23:21:00,
2014-02-13 18:26:00,43.1,31.0,29.66,NW,315,0.0,1.0,62,0.03,,CLR,0.69,0.00,VWS V15.00,2014-02-13 23:26:00,
2014-02-13 18:30:00,42.3,31.0,29.66,North,359,1.0,2.0,64,0.03,,CLR,0.69,0.00,VWS V15.00,2014-02-13 23:30:00,
2014-02-13 18:31:00,42.2,30.9,29.66,North,359,1.0,2.0,64,0.02,,CLR,0.69,0.00,VWS V15.00,2014-02-13 23:31:00,
2014-02-13 18:36:00,41.5,30.6,29.66,North,0,0.0,1.0,65,0.03,,CLR,0.70,0.00,VWS V15.00,2014-02-13 23:36:00,
2014-02-13 18:41:00,40.9,30.8,29.66,North,0,0.0,1.0,67,0.03,,CLR,0.70,0.00,VWS V15.00,2014-02-13 23:41:00,
2014-02-13 18:46:00,40.3,30.2,29.66,North,0,0.0,1.0,67,0.03,,CLR,0.70,0.00,VWS V15.00,2014-02-13 23:46:00,
2014-02-13 18:51:00,40.1,30.4,29.66,North,0,0.0,1.0,68,0.03,,CLR,0.70,0.00,VWS V15.00,2014-02-13 23:51:00,
2014-02-13 18:56:00,39.9,30.6,29.66,North,0,0.0,1.0,69,0.03,,CLR,0.70,0.00,VWS V15.00,2014-02-13 23:56:00,
2014-02-13 19:00:00,39.6,30.3,29.67,North,0,0.0,0.0,69,0.03,,CLR,0.70,0.00,VWS V15.00,2014-02-14 00:00:00,
2014-02-13 19:01:00,39.6,30.3,29.67,North,0,0.0,0.0,69,0.01,,CLR,0.70,0.00,VWS V15.00,2014-02-14 00:01:00,
2014-02-13 19:06:00,39.3,30.4,29.67,North,0,0.0,1.0,70,0.01,,CLR,0.70,0.00,VWS V15.00,2014-02-14 00:06:00,
2014-02-13 19:11:00,39.1,30.5,29.67,North,0,0.0,0.0,71,0.01,,CLR,0.70,0.00,VWS V15.00,2014-02-14 00:11:00,
2014-02-13 19:16:00,38.9,30.3,29.67,North,0,0.0,0.0,71,0.01,,CLR,0.70,0.00,VWS V15.00,2014-02-14 00:16:00,
2014-02-13 19:21:00,38.6,30.4,29.67,North,0,0.0,0.0,72,0.01,,CLR,0.70,0.00,VWS V15.00,2014-02-14 00:21:00,
2014-02-13 19:26:00,38.5,30.3,29.68,North,0,0.0,0.0,72,0.01,,CLR,0.70,0.00,VWS V15.00,2014-02-14 00:26:00,
2014-02-13 19:30:00,38.3,30.1,29.68,North,0,0.0,1.0,72,0.01,,CLR,0.70,0.00,VWS V15.00,2014-02-14 00:30:00,
2014-02-13 19:31:00,38.3,30.1,29.68,North,0,0.0,1.0,72,0.01,,CLR,0.70,0.00,VWS V15.00,2014-02-14 00:31:00,
2014-02-13 19:36:00,38.0,30.1,29.68,North,0,0.0,0.0,73,0.01,,CLR,0.70,0.00,VWS V15.00,2014-02-14 00:36:00,
2014-02-13 19:41:00,37.8,30.3,29.68,North,0,0.0,1.0,74,0.01,,CLR,0.70,0.00,VWS V15.00,2014-02-14 00:41:00,
2014-02-13 19:46:00,37.8,30.3,29.69,NNW,340,0.0,1.0,74,0.01,,CLR,0.70,0.00,VWS V15.00,2014-02-14 00:46:00,
2014-02-13 19:51:00,37.8,30.3,29.69,WNW,302,1.0,1.0,74,0.01,,CLR,0.70,0.00,VWS V15.00,2014-02-14 00:51:00,
2014-02-13 19:56:00,37.8,30.3,29.69,NW,304,0.0,1.0,74,0.01,,CLR,0.70,0.00,VWS V15.00,2014-02-14 00:56:00,
2014-02-13 20:00:00,37.9,30.4,29.69,West,274,0.0,3.0,74,0.01,,CLR,0.70,0.00,VWS V15.00,2014-02-14 01:00:00,
2014-02-13 20:01:00,37.9,30.4,29.69,West,274,0.0,3.0,74,0.00,,CLR,0.70,0.00,VWS V15.00,2014-02-14 01:01:00,
2014-02-13 20:06:00,38.0,30.5,29.69,West,274,0.0,1.0,74,0.00,,CLR,0.70,0.00,VWS V15.00,2014-02-14 01:06:00,
2014-02-13 20:20:00,38.5,30.3,29.70,NW,316,1.0,1.0,72,0.00,,CLR,0.70,0.00,VWS V15.00,2014-02-14 01:20:00,
2014-02-13 20:25:00,38.9,30.3,29.70,WSW,258,0.0,3.0,71,0.00,,CLR,0.70,0.00,VWS V15.00,2014-02-14 01:25:00,
2014-02-13 20:30:00,39.1,30.2,29.70,WNW,287,1.0,2.0,70,0.00,,CLR,0.70,0.00,VWS V15.00,2014-02-14 01:30:00,
2014-02-13 20:35:00,39.2,30.2,29.70,WNW,287,0.0,1.0,70,0.00,,CLR,0.70,0.00,VWS V15.00,2014-02-14 01:35:00,
2014-02-13 20:40:00,39.1,29.8,29.71,West,271,1.0,2.0,69,0.00,,CLR,0.70,0.00,VWS V15.00,2014-02-14 01:40:00,
2014-02-13 20:45:00,39.1,29.8,29.71,West,275,0.0,2.0,69,0.00,,CLR,0.70,0.00,VWS V15.00,2014-02-14 01:45:00,
2014-02-13 20:50:00,38.8,29.5,29.71,West,267,1.0,1.0,69,0.00,,CLR,0.70,0.00,VWS V15.00,2014-02-14 01:50:00,
2014-02-13 20:55:00,38.6,29.3,29.71,West,265,0.0,1.0,69,0.00,,CLR,0.70,0.00,VWS V15.00,2014-02-14 01:55:00,
2014-02-13 21:00:00,38.5,28.9,29.72,West,272,0.0,1.0,68,0.00,,CLR,0.70,0.00,VWS V15.00,2014-02-14 02:00:00,
2014-02-13 21:05:00,38.3,28.7,29.72,West,265,0.0,2.0,68,0.00,,CLR,0.70,0.00,VWS V15.00,2014-02-14 02:05:00,
2014-02-13 21:10:00,38.2,28.6,29.71,West,265,0.0,0.0,68,0.01,,CLR,0.71,0.00,VWS V15.00,2014-02-14 02:10:00,
2014-02-13 21:16:00,37.8,28.2,29.72,SSW,203,1.0,1.0,68,0.01,,CLR,0.71,0.00,VWS V15.00,2014-02-14 02:16:00,
2014-02-13 21:21:00,37.9,27.9,29.72,South,178,0.0,2.0,67,0.01,,CLR,0.71,0.00,VWS V15.00,2014-02-14 02:21:00,
2014-02-13 21:26:00,37.6,28.0,29.72,WSW,250,0.0,1.0,68,0.01,,CLR,0.71,0.00,VWS V15.00,2014-02-14 02:26:00,
2014-02-13 21:30:00,36.6,29.1,29.73,SW,217,0.0,0.0,74,0.01,,CLR,0.71,0.00,VWS V15.00,2014-02-14 02:30:00,
2014-02-13 21:31:00,37.5,28.6,29.72,WSW,253,2.0,3.0,70,0.01,,CLR,0.71,0.00,VWS V15.00,2014-02-14 02:31:00,
2014-02-13 21:36:00,37.8,28.9,29.72,WNW,285,1.0,5.0,70,0.01,,CLR,0.71,0.00,VWS V15.00,2014-02-14 02:36:00,
2014-02-13 21:41:00,37.9,29.0,29.72,WNW,289,0.0,3.0,70,0.01,,CLR,0.71,0.00,VWS V15.00,2014-02-14 02:41:00,
2014-02-13 21:46:00,38.0,29.5,29.72,NW,316,1.0,3.0,71,0.01,,CLR,0.71,0.00,VWS V15.00,2014-02-14 02:46:00,
2014-02-13 21:51:00,37.9,29.4,29.73,WNW,294,0.0,3.0,71,0.01,,CLR,0.71,0.00,VWS V15.00,2014-02-14 02:51:00,
2014-02-13 21:56:00,37.8,29.3,29.72,WSW,258,0.0,2.0,71,0.01,,CLR,0.71,0.00,VWS V15.00,2014-02-14 02:56:00,
2014-02-13 22:00:00,36.3,28.5,29.72,WNW,282,2.0,3.0,73,0.00,,CLR,0.71,0.00,VWS V15.00,2014-02-14 03:00:00,
2014-02-13 22:01:00,37.6,29.4,29.73,West,260,1.0,3.0,72,0.01,,CLR,0.71,0.00,VWS V15.00,2014-02-14 03:01:00,
2014-02-13 22:06:00,37.5,29.3,29.72,SSW,200,1.0,1.0,72,0.01,,CLR,0.71,0.00,VWS V15.00,2014-02-14 03:06:00,
2014-02-13 22:11:00,37.3,29.1,29.73,WSW,253,1.0,3.0,72,0.01,,CLR,0.71,0.00,VWS V15.00,2014-02-14 03:11:00,
2014-02-13 22:16:00,37.2,29.4,29.73,WSW,246,0.0,1.0,73,0.01,,CLR,0.71,0.00,VWS V15.00,2014-02-14 03:16:00,
2014-02-13 22:21:00,36.9,29.1,29.73,WSW,239,0.0,1.0,73,0.01,,CLR,0.71,0.00,VWS V15.00,2014-02-14 03:21:00,
2014-02-13 22:26:00,36.8,29.3,29.73,SW,217,0.0,1.0,74,0.01,,CLR,0.71,0.00,VWS V15.00,2014-02-14 03:26:00,
2014-02-13 22:30:00,36.2,28.1,29.72,West,278,1.0,3.0,72,0.00,,CLR,0.71,0.00,VWS V15.00,2014-02-14 03:30:00,
2014-02-13 22:31:00,36.6,29.1,29.73,SSW,199,1.0,1.0,74,0.00,,CLR,0.71,0.00,VWS V15.00,2014-02-14 03:31:00,
2014-02-13 22:36:00,36.5,29.0,29.72,South,179,1.0,3.0,74,0.00,,CLR,0.71,0.00,VWS V15.00,2014-02-14 03:36:00,
2014-02-13 22:41:00,36.5,29.0,29.73,WSW,254,1.0,2.0,74,0.00,,CLR,0.71,0.00,VWS V15.00,2014-02-14 03:41:00,
2014-02-13 22:46:00,36.3,28.8,29.73,WSW,258,0.0,2.0,74,0.00,,CLR,0.71,0.00,VWS V15.00,2014-02-14 03:46:00,
2014-02-13 22:51:00,36.2,28.7,29.72,WSW,248,1.0,2.0,74,0.00,,CLR,0.71,0.00,VWS V15.00,2014-02-14 03:51:00,
2014-02-13 22:56:00,36.2,28.7,29.72,SE,136,1.0,2.0,74,0.00,,CLR,0.71,0.00,VWS V15.00,2014-02-14 03:56:00,
2014-02-13 23:00:00,35.6,27.5,29.72,West,260,1.0,3.0,72,0.00,,CLR,0.00,0.00,VWS V15.00,2014-02-14 04:00:00,
2014-02-13 23:01:00,36.3,28.5,29.72,West,281,1.0,3.0,73,0.00,,CLR,0.71,0.00,VWS V15.00,2014-02-14 04:01:00,
2014-02-13 23:06:00,36.5,28.7,29.72,NW,316,1.0,3.0,73,0.00,,CLR,0.71,0.00,VWS V15.00,2014-02-14 04:06:00,
2014-02-13 23:11:00,36.3,28.5,29.72,WNW,296,2.0,3.0,73,0.00,,CLR,0.71,0.00,VWS V15.00,2014-02-14 04:11:00,
2014-02-13 23:16:00,36.2,28.4,29.72,NW,309,3.0,4.0,73,0.00,,CLR,0.71,0.00,VWS V15.00,2014-02-14 04:16:00,
2014-02-13 23:21:00,36.3,28.1,29.72,West,267,1.0,3.0,72,0.00,,CLR,0.71,0.00,VWS V15.00,2014-02-14 04:21:00,
2014-02-13 23:26:00,36.2,28.1,29.72,West,271,1.0,2.0,72,0.00,,CLR,0.71,0.00,VWS V15.00,2014-02-14 04:26:00,
2014-02-13 23:30:00,35.5,27.0,29.73,West,263,1.0,5.0,71,0.00,,CLR,0.00,0.00,VWS V15.00,2014-02-14 04:30:00,
2014-02-13 23:31:00,36.2,28.1,29.72,West,278,1.0,3.0,72,0.00,,CLR,0.71,0.00,VWS V15.00,2014-02-14 04:31:00,
2014-02-13 23:36:00,36.0,27.9,29.72,WNW,294,1.0,2.0,72,0.00,,CLR,0.71,0.00,VWS V15.00,2014-02-14 04:36:00,
2014-02-13 23:41:00,35.9,27.8,29.73,WNW,284,2.0,2.0,72,0.00,,CLR,0.71,0.00,VWS V15.00,2014-02-14 04:41:00,
2014-02-13 23:46:00,35.8,27.7,29.72,WNW,282,1.0,2.0,72,0.00,,CLR,0.71,0.00,VWS V15.00,2014-02-14 04:46:00,
2014-02-13 23:51:00,35.6,27.8,29.73,West,270,2.0,3.0,73,0.00,,CLR,0.71,0.00,VWS V15.00,2014-02-14 04:51:00,
2014-02-13 23:56:00,35.6,27.8,29.73,West,261,1.0,3.0,73,0.00,,CLR,0.71,0.00,VWS V15.00,2014-02-14 04:56:00,